Wilmington, OH

5:51 AM EDT on May 25, 2017 (GMT -0400)
Airborne

Weather History for KILN - October, 2011

Change the Weather History Date:

Friday, October 14, 2011

  Actual Average (KFFO) Record (KFFO)
Temperature  
Mean Temperature 56 °F -  
Max Temperature 64 °F 62 °F 78 °F (2000)
Min Temperature 48 °F 41 °F 30 °F (2002)
Degree Days  
Heating Degree Days 9    
Growing Degree Days 6 (Base 50)    
Moisture  
Dew Point 47 °F    
Average Humidity 77    
Maximum Humidity 94    
Minimum Humidity 46    
Precipitation  
Precipitation 0.06 in - - ()
Sea Level Pressure  
Sea Level Pressure 29.62 in    
Wind  
Wind Speed 14 mph (West)    
Max Wind Speed 25 mph    
Max Gust Speed 36 mph    
Visibility 10 miles    
Events Rain , Thunderstorm    
Averages and records for this station are not official NWS values.
T = Trace of Precipitation, MM = Missing Value Source: NWS Daily Summary

Daily Weather History Graph

Daily Weather History Graph

Search for Another Location

Airport or City:

Trip Planner

Search our weather history database for the weather conditions in past years. The results will help you decide how hot, cold, wet, or windy it might be!

Date:

Astronomy

Oct. 14, 2011 Rise Set
Actual Time 7:43 AM EDT 6:57 PM EDT
Civil Twilight 7:16 AM EDT 7:24 PM EDT
Nautical Twilight 6:45 AM EDT 7:56 PM EDT
Astronomical Twilight 6:14 AM EDT 8:27 PM EDT
Moon 8:11 PM EDT (10/14) 10:10 AM EDT (10/14)
Length of Visible Light 12h 08m
Length of Day
11h 14m
Waning Gibbous, 94% of the Moon is Illuminated
Oct 14
Waning Gibbous
Oct 19
Last Quarter
Oct 26
New
Nov 2
First Quarter
Nov 10
Full

Hourly Weather History & Observations

Time (EDT) Temp. Dew Point Humidity Pressure Visibility Wind Dir Wind Speed Gust Speed Precip Events Conditions
12:48 AM 59.0 °F 57.2 °F 94% 29.49 in 6.0 mi WSW 11.5 mph - 0.00 in Rain Light Rain
12:54 AM 59.0 °F 57.0 °F 93% 29.49 in 5.0 mi WSW 10.4 mph - 0.01 in Rain Light Rain
1:01 AM 59.0 °F 57.2 °F 94% 29.49 in 7.0 mi WSW 10.4 mph - 0.00 in Rain Light Rain
1:41 AM 57.2 °F 55.4 °F 94% 29.50 in 10.0 mi West 16.1 mph 25.3 mph 0.01 in Rain Light Rain
1:54 AM 57.9 °F 54.0 °F 87% 29.51 in 10.0 mi West 16.1 mph 25.3 mph 0.01 in   Overcast
2:03 AM 57.2 °F 53.6 °F 88% 29.51 in 10.0 mi West 17.3 mph 25.3 mph N/A   Overcast
2:54 AM 55.9 °F 53.1 °F 90% 29.53 in 10.0 mi West 10.4 mph - 0.00 in   Mostly Cloudy
3:42 AM 55.4 °F 53.6 °F 94% 29.52 in 10.0 mi West 11.5 mph - N/A   Overcast
3:54 AM 55.9 °F 53.1 °F 90% 29.53 in 10.0 mi West 11.5 mph - N/A   Overcast
4:54 AM 55.9 °F 53.1 °F 90% 29.54 in 10.0 mi West 15.0 mph - N/A   Overcast
5:54 AM 55.0 °F 50.0 °F 83% 29.56 in 10.0 mi West 17.3 mph 26.5 mph N/A   Overcast
6:54 AM 52.0 °F 46.9 °F 83% 29.58 in 10.0 mi West 13.8 mph 23.0 mph N/A   Mostly Cloudy
7:09 AM 51.8 °F 46.4 °F 82% 29.57 in 10.0 mi West 13.8 mph - N/A   Scattered Clouds
7:43 AM 51.8 °F 46.4 °F 82% 29.58 in 10.0 mi West 11.5 mph - N/A   Mostly Cloudy
7:54 AM 51.1 °F 46.0 °F 83% 29.60 in 10.0 mi WSW 15.0 mph 23.0 mph N/A   Mostly Cloudy
8:19 AM 50.0 °F 44.6 °F 82% 29.60 in 10.0 mi West 12.7 mph - N/A   Scattered Clouds
8:54 AM 51.1 °F 45.0 °F 80% 29.63 in 10.0 mi West 15.0 mph - N/A   Partly Cloudy
9:54 AM 53.1 °F 45.0 °F 74% 29.64 in 10.0 mi West 18.4 mph - N/A   Mostly Cloudy
10:05 AM 53.6 °F 44.6 °F 72% 29.63 in 10.0 mi West 13.8 mph 25.3 mph N/A   Mostly Cloudy
10:12 AM 53.6 °F 44.6 °F 72% 29.63 in 10.0 mi West 16.1 mph 23.0 mph N/A   Scattered Clouds
10:54 AM 55.9 °F 45.0 °F 67% 29.65 in 10.0 mi West 17.3 mph 26.5 mph N/A   Scattered Clouds
11:54 AM 57.9 °F 42.1 °F 56% 29.65 in 10.0 mi West 25.3 mph 35.7 mph N/A   Scattered Clouds
12:54 PM 61.0 °F 41.0 °F 48% 29.65 in 10.0 mi West 25.3 mph 35.7 mph N/A   Partly Cloudy
1:54 PM 62.1 °F 41.0 °F 46% 29.63 in 10.0 mi West 19.6 mph 32.2 mph 0.00 in   Overcast
2:31 PM 57.2 °F 42.8 °F 59% 29.63 in 7.0 mi West 17.3 mph 32.2 mph 0.00 in Rain , Thunderstorm Light Thunderstorms and Rain
2:46 PM 53.6 °F 44.6 °F 72% 29.63 in 10.0 mi NW 9.2 mph 25.3 mph 0.00 in Rain Light Rain
2:54 PM 54.0 °F 46.0 °F 75% 29.64 in 10.0 mi NW 10.4 mph - 0.00 in   Overcast
3:54 PM 57.0 °F 46.0 °F 67% 29.64 in 10.0 mi West 13.8 mph 19.6 mph 0.00 in   Mostly Cloudy
4:54 PM 55.9 °F 44.1 °F 64% 29.67 in 10.0 mi WNW 15.0 mph 25.3 mph 0.00 in Rain Light Rain
5:54 PM 55.9 °F 44.1 °F 64% 29.69 in 10.0 mi West 16.1 mph 24.2 mph 0.02 in   Scattered Clouds
6:54 PM 55.9 °F 43.0 °F 62% 29.71 in 10.0 mi West 15.0 mph 21.9 mph N/A   Overcast
7:54 PM 54.0 °F 42.1 °F 64% 29.73 in 10.0 mi West 8.1 mph - N/A Thunderstorm Scattered Clouds
8:15 PM 51.8 °F 42.8 °F 71% 29.73 in 10.0 mi WSW 17.3 mph 31.1 mph 0.00 in Rain Light Rain
8:54 PM 50.0 °F 44.1 °F 80% 29.75 in 10.0 mi WSW 6.9 mph - 0.01 in Rain Light Rain
9:54 PM 50.0 °F 45.0 °F 83% 29.75 in 10.0 mi SW 10.4 mph - 0.01 in   Overcast
10:54 PM 52.0 °F 44.1 °F 74% 29.75 in 10.0 mi West 8.1 mph - N/A   Overcast
11:54 PM 48.9 °F 43.0 °F 80% 29.76 in 10.0 mi West 8.1 mph - N/A   Clear